IZ0QWM-13 Scandriglia IT current weather conditions

sailwx.info

Wind from 090

Air temperature 10.0° C
Dewpoint 8.4° C

Last reported at 2015-Apr-01 00:44 UTC.
Time now 2015-Apr-01 01:13 UTC

Location: N 42°10' E 012°47'.
View on Google Maps.

See reports from other nearby stations

  
Tides and Currents Weather Stations Pressure Air Temp Water Temp Dewpoint Dewpoint Depression Visibility Wind Speed Wind Dir Waves Ship Positions
date/time (UTC)wind fromknots sea level pressurealtimeterstation pressurevisibilityair tempwater tempwave heightnotes
2015-Apr-01 00:44 090 10.0
2015-Apr-01 00:34 090 9.4
2015-Apr-01 00:24 090 9.4
2015-Apr-01 00:14 090 9.4
2015-Apr-01 00:04 090 9.4
2015-Mar-31 23:54 090 8.9
2015-Mar-31 23:44 058 9.4
2015-Mar-31 23:34 058 9.4
2015-Mar-31 23:24 058 9.4
2015-Mar-31 23:14 201 9.4
2015-Mar-31 23:04 201 9.4
2015-Mar-31 22:54 201 9.4
2015-Mar-31 22:44 201 9.4
2015-Mar-31 22:34 201 9.4
2015-Mar-31 22:24 201 9.4
2015-Mar-31 22:14 201 9.4
2015-Mar-31 22:04 201 10.0
2015-Mar-31 21:54 201 10.0
2015-Mar-31 21:44 201 10.6
2015-Mar-31 21:34 201 10.6
2015-Mar-31 21:24 201 10.6
2015-Mar-31 21:14 201 11.1
2015-Mar-31 21:04 201 11.1
2015-Mar-31 20:54 201 11.1
2015-Mar-31 20:44 201 11.1
2015-Mar-31 20:34 201 11.1
2015-Mar-31 20:24 201 11.1
2015-Mar-31 20:14 201 11.7
2015-Mar-31 19:54 201 12.2
2015-Mar-31 19:44 201 12.8
2015-Mar-31 19:34 201 12.8
2015-Mar-31 19:24 262 1 gusting 18 13.3
2015-Mar-31 19:14 065 13.3
2015-Mar-31 19:04 198 3 gusting 18 13.3
2015-Mar-31 18:54 269 0 gusting 18 13.3
2015-Mar-31 18:44 292 13.3
2015-Mar-31 18:34 292 13.3
2015-Mar-31 18:24 150 13.9
2015-Mar-31 18:14 165 6 gusting 15 13.9
2015-Mar-31 18:04 252 13.9
2015-Mar-31 17:54 210 13.9
2015-Mar-31 17:44 162 14.4
2015-Mar-31 17:34 145 6 gusting 15 14.4
2015-Mar-31 17:24 225 3 gusting 15 15.0
2015-Mar-31 17:14 226 3 gusting 15 15.0
2015-Mar-31 17:04 214 7 gusting 15 15.6
2015-Mar-31 16:54 204 6 gusting 15 15.6
2015-Mar-31 16:44 176 7 gusting 15 16.1
2015-Mar-31 16:34 224 6 gusting 15 16.1
2015-Mar-31 16:24 214 4 gusting 15 16.1
2015-Mar-31 16:14 228 6 gusting 15 16.1
2015-Mar-31 16:04 180 7 gusting 15 16.7
2015-Mar-31 15:54 359 17.2
2015-Mar-31 15:44 329 17.8
2015-Mar-31 15:34 248 2 gusting 13 18.3
2015-Mar-31 15:24 079 5 gusting 13 18.9
2015-Mar-31 15:14 018 18.9
2015-Mar-31 15:04 290 18.9
2015-Mar-31 14:54 200 2 gusting 13 18.9
2015-Mar-31 14:44 184 2 gusting 13 18.9
2015-Mar-31 14:34 187 3 gusting 13 19.4
2015-Mar-31 14:24 191 5 gusting 13 19.4
2015-Mar-31 14:14 166 6 gusting 13 19.4
2015-Mar-31 14:04 122 6 gusting 12 20.0
2015-Mar-31 13:54 177 5 gusting 16 20.0
2015-Mar-31 13:44 193 1 gusting 16 20.0
2015-Mar-31 13:34 243 6 gusting 14 20.0
2015-Mar-31 13:24 205 11 gusting 14 20.0
2015-Mar-31 13:14 200 6 gusting 13 19.4
2015-Mar-31 13:04 172 4 gusting 13 19.4
2015-Mar-31 12:54 184 6 gusting 13 20.0
2015-Mar-31 12:44 359 20.0
2015-Mar-31 12:34 359 20.0
2015-Mar-31 12:24 169 20.0
2015-Mar-31 12:14 186 4 gusting 13 19.4
2015-Mar-31 12:04 198 5 gusting 13 19.4
2015-Mar-31 11:54 184 6 gusting 13 19.4
2015-Mar-31 11:44 231 3 gusting 13 20.0
2015-Mar-31 11:34 235 1 gusting 13 19.4
2015-Mar-31 11:24 159 4 gusting 13 18.9
2015-Mar-31 11:14 225 3 gusting 11 18.9
2015-Mar-31 11:04 156 18.9
2015-Mar-31 10:54 177 1 gusting 10 18.3
2015-Mar-31 10:44 201 3 gusting 8 18.3
2015-Mar-31 10:34 207 3 gusting 8 18.3
2015-Mar-31 10:24 218 2 gusting 6 18.3
2015-Mar-31 10:14 200 4 gusting 6 18.3
2015-Mar-31 10:04 219 3 gusting 6 17.2
2015-Mar-31 09:54 172 16.7
2015-Mar-31 09:44 283 2 gusting 6 16.7
2015-Mar-31 09:34 302 3 gusting 6 16.1
2015-Mar-31 09:24 284 2 gusting 6 15.6
2015-Mar-31 09:14 193 15.6
2015-Mar-31 09:04 284 15.6
2015-Mar-31 08:54 242 15.6
2015-Mar-31 08:44 248 15.6
2015-Mar-31 08:34 278 15.6
2015-Mar-31 08:24 278 14.4
2015-Mar-31 08:14 278 13.9
2015-Mar-31 08:04 278 13.3
2015-Mar-31 07:54 278 13.3
2015-Mar-31 07:44 278 13.3
2015-Mar-31 07:34 278 12.2
2015-Mar-31 07:24 278 11.7
2015-Mar-31 07:14 278 11.7
2015-Mar-31 07:04 278 11.1
2015-Mar-31 06:54 287 10.6
2015-Mar-31 06:44 330 10.6
2015-Mar-31 06:34 292 10.6
2015-Mar-31 06:24 255 2 gusting 5 10.0
2015-Mar-31 06:14 257 1 gusting 4 10.0
2015-Mar-31 06:04 065 9.4
2015-Mar-31 05:54 065 9.4
2015-Mar-31 05:44 065 9.4
2015-Mar-31 05:34 065 9.4
2015-Mar-31 05:24 065 10.0
2015-Mar-31 05:14 065 10.0
2015-Mar-31 05:04 065 10.0
2015-Mar-31 04:54 065 10.0
2015-Mar-31 04:44 065 10.6
2015-Mar-31 04:34 065 11.1
2015-Mar-31 04:24 065 11.7
2015-Mar-31 04:14 065 11.1
2015-Mar-31 04:04 065 10.6
2015-Mar-31 03:54 060 10.6
2015-Mar-31 03:44 082 10.6
2015-Mar-31 03:34 082 10.6
2015-Mar-31 03:24 082 10.0
2015-Mar-31 03:14 110 11.1
2015-Mar-31 03:04 110 11.1
2015-Mar-31 02:54 034 11.1
2015-Mar-31 02:44 034 11.7
2015-Mar-31 02:34 034 11.7
2015-Mar-31 02:24 034 11.7
2015-Mar-31 02:14 076 11.7
2015-Mar-31 02:04 104 11.1
2015-Mar-31 01:54 104 10.6
2015-Mar-31 01:44 104 10.6
2015-Mar-31 01:34 104 10.6
2015-Mar-31 01:24 104 10.6
2015-Mar-31 01:14 104 10.6
2015-Mar-31 01:04 104 10.6
2015-Mar-31 00:54 104 10.6
2015-Mar-31 00:44 104 10.6
2015-Mar-31 00:34 082 10.0
2015-Mar-31 00:24 086 10.6
2015-Mar-31 00:14 086 10.6
2015-Mar-31 00:04 086 10.6
2015-Mar-30 23:54 086 10.6
2015-Mar-30 23:44 086 10.0
2015-Mar-30 23:34 086 10.0
2015-Mar-30 23:24 086 10.6
2015-Mar-30 23:14 086 10.6
2015-Mar-30 23:04 075 10.0
2015-Mar-30 22:54 075 10.0
2015-Mar-30 22:44 075 10.6
2015-Mar-30 22:34 075 10.6
2015-Mar-30 22:24 075 10.0
2015-Mar-30 22:14 075 10.0
2015-Mar-30 22:04 068 10.0
2015-Mar-30 21:54 068 10.6
2015-Mar-30 21:44 068 10.6
2015-Mar-30 21:34 269 11.1
2015-Mar-30 21:24 269 11.1
2015-Mar-30 21:14 269 11.1
2015-Mar-30 21:04 269 11.7
2015-Mar-30 20:54 269 11.7
2015-Mar-30 20:44 269 11.7
2015-Mar-30 20:34 269 12.2
2015-Mar-30 20:24 269 12.2
2015-Mar-30 20:14 269 12.2
2015-Mar-30 20:04 269 12.2
2015-Mar-30 19:54 269 12.8
2015-Mar-30 19:44 269 13.3
2015-Mar-30 19:34 269 13.3
2015-Mar-30 19:24 269 13.3
2015-Mar-30 19:14 269 13.3
2015-Mar-30 19:04 269 13.9
2015-Mar-30 18:54 269 13.9
2015-Mar-30 18:44 269 13.9
2015-Mar-30 18:34 269 13.9
2015-Mar-30 18:24 269 13.9
2015-Mar-30 18:14 269 14.4
2015-Mar-30 18:04 269 14.4
2015-Mar-30 17:54 183 14.4
2015-Mar-30 17:44 183 15.0
2015-Mar-30 17:34 183 15.6
2015-Mar-30 17:24 183 15.6
2015-Mar-30 17:14 160 4 gusting 9 16.1
2015-Mar-30 17:04 183 4 gusting 9 16.1
2015-Mar-30 16:54 186 3 gusting 9 16.1
2015-Mar-30 16:44 162 2 gusting 9 16.1
2015-Mar-30 16:34 188 5 gusting 9 16.1
2015-Mar-30 16:24 191 6 gusting 9 16.7
2015-Mar-30 16:14 359 17.2
2015-Mar-30 16:04 359 17.8
2015-Mar-30 15:54 006 18.9
2015-Mar-30 15:44 006 18.9
2015-Mar-30 15:34 006 18.3
2015-Mar-30 15:24 006 17.2
2015-Mar-30 15:14 359 17.8
2015-Mar-30 15:04 359 18.9
2015-Mar-30 14:54 359 18.3
2015-Mar-30 14:44 225 18.3
2015-Mar-30 14:34 225 18.3
2015-Mar-30 14:24 359 18.3
2015-Mar-30 14:14 359 18.3
2015-Mar-30 14:04 359 17.2
2015-Mar-30 13:54 359 16.7
2015-Mar-30 13:44 359 17.2
2015-Mar-30 13:34 359 16.7
2015-Mar-30 13:24 359 16.7
2015-Mar-30 13:14 359 16.7
2015-Mar-30 13:04 290 16.7
2015-Mar-30 12:54 290 16.7
2015-Mar-30 12:44 290 16.1
2015-Mar-30 12:34 290 15.6
2015-Mar-30 12:24 269 15.0
2015-Mar-30 12:14 315 15.0
2015-Mar-30 12:04 274 15.6
2015-Mar-30 11:54 359 15.6
2015-Mar-30 11:44 219 15.6
2015-Mar-30 11:34 359 0 gusting 6 15.6
2015-Mar-30 11:24 135 15.6
2015-Mar-30 11:14 285 3 gusting 6 15.6
2015-Mar-30 11:04 284 15.6
2015-Mar-30 10:54 284 16.1
2015-Mar-30 10:44 142 15.6
2015-Mar-30 10:34 179 15.6
2015-Mar-30 10:24 197 2 gusting 6 15.6
2015-Mar-30 10:14 278 15.0
2015-Mar-30 10:04 278 2 gusting 6 14.4
2015-Mar-30 09:54 274 13.9
2015-Mar-30 09:44 288 3 gusting 6 13.9
2015-Mar-30 09:34 285 3 gusting 6 13.9
2015-Mar-30 09:24 263 1 gusting 6 13.9
2015-Mar-30 09:14 274 6 gusting 6 13.9
2015-Mar-30 09:04 287 14.4
2015-Mar-30 08:54 336 15.0
2015-Mar-30 08:44 027 15.0
2015-Mar-30 08:34 027 15.0
2015-Mar-30 08:24 027 14.4
2015-Mar-30 08:14 027 14.4
2015-Mar-30 08:04 027 14.4
2015-Mar-30 07:54 027 13.9
2015-Mar-30 07:44 027 13.3
2015-Mar-30 07:34 027 12.8
2015-Mar-30 07:24 027 12.8
2015-Mar-30 07:14 027 12.8
2015-Mar-30 07:04 027 12.2
2015-Mar-30 06:54 027 12.2
2015-Mar-30 06:44 027 12.2
2015-Mar-30 06:34 027 11.7
2015-Mar-30 06:24 027 11.7
2015-Mar-30 06:14 015 11.7
2015-Mar-30 06:04 015 11.7
2015-Mar-30 05:54 015 11.7
2015-Mar-30 05:44 015 11.7
2015-Mar-30 05:34 015 11.7
2015-Mar-30 05:24 015 11.7
2015-Mar-30 05:14 015 11.7
2015-Mar-30 05:04 015 11.7
2015-Mar-30 04:54 015 11.1
2015-Mar-30 04:44 015 11.1
2015-Mar-30 04:34 015 11.1
2015-Mar-30 04:24 015 11.1
2015-Mar-30 04:14 015 11.1
2015-Mar-30 04:04 014 11.1
2015-Mar-30 03:54 014 11.1
2015-Mar-30 03:44 032 11.1
2015-Mar-30 03:34 032 11.1
2015-Mar-30 03:24 032 10.6
2015-Mar-30 03:14 032 11.1
2015-Mar-30 03:04 032 11.1
2015-Mar-30 02:54 032 11.1
2015-Mar-30 02:44 032 11.1
2015-Mar-30 02:34 218 11.1
2015-Mar-30 02:24 311 3 gusting 13 11.1
2015-Mar-30 02:14 221 11.1
2015-Mar-30 02:04 001 1 gusting 13 11.1
2015-Mar-30 01:54 202 5 gusting 13 11.1
2015-Mar-30 01:44 195 4 gusting 11 10.6
2015-Mar-30 01:34 191 6 gusting 9 11.1
2015-Mar-30 01:24 180 4 gusting 9 10.6
2015-Mar-30 01:14 278 11.1
2015-Mar-30 01:04 225 2 gusting 9 11.1